When you browse on this site, cookies collect data to enhance your experience and personalize the content and advertising you see.
Visit our Privacy Policy to learn more. By continuing to use the site, you agree to this use of cookies and data.
  • In Portugal
  • List of Countries
  • For 7 days
  • Water Temperature
  • Satellite Maps
  • Weather Map
  • Weather Widgets
  • user-avatar
    Login

    Hourly Weather Tomislaw

    Today, 20 March, Wednesday

    Time Temperature Precipitation Wind Pressure Humidity
    00:00 +1°C° 0 mm 2 mps 756 mmHg 85%
    01:00 +1°C° 0 mm 2 mps 756 mmHg 87%
    02:00 +1°C° 0 mm 2 mps 756 mmHg 88%
    03:00 -1°C° 0 mm 2 mps 756 mmHg 90%
    04:00 -1°C° 0 mm 2 mps 756 mmHg 91%
    05:00 +1°C° 0 mm 2 mps 757 mmHg 90%
    06:00 +1°C° 0 mm 2 mps 757 mmHg 89%
    07:00 +1°C° 0 mm 2 mps 757 mmHg 85%
    08:00 +2°C° 0 mm 3 mps 757 mmHg 76%
    09:00 +4°C° 0 mm 3 mps 758 mmHg 68%
    10:00 +7°C° 0 mm 3 mps 758 mmHg 59%
    11:00 +8°C° 0 mm 3 mps 758 mmHg 54%
    12:00 +9°C° 0 mm 3 mps 758 mmHg 50%
    13:00 +10°C° 0 mm 3 mps 758 mmHg 46%
    14:00 +10°C° 0 mm 3 mps 758 mmHg 45%
    15:00 +10°C° 0 mm 3 mps 757 mmHg 45%
    16:00 +10°C° 0 mm 3 mps 757 mmHg 45%
    17:00 +9°C° 0 mm 2 mps 757 mmHg 50%
    18:00 +7°C° 0 mm 2 mps 757 mmHg 56%
    19:00 +6°C° 0 mm 2 mps 757 mmHg 62%
    20:00 +5°C° 0 mm 2 mps 758 mmHg 63%
    21:00 +5°C° 0 mm 2 mps 758 mmHg 64%
    22:00 +5°C° 0 mm 2 mps 758 mmHg 66%
    23:00 +4°C° 0 mm 3 mps 758 mmHg 65%

    Tomorrow, 21 March, Thursday

    Time Temperature Precipitation Wind Pressure Humidity
    00:00 +3°C° 0 mm 3 mps 758 mmHg 65%
    01:00 +3°C° 0 mm 3 mps 759 mmHg 65%
    02:00 +3°C° 0 mm 3 mps 758 mmHg 67%
    03:00 +3°C° 0 mm 3 mps 758 mmHg 68%
    04:00 +3°C° 0 mm 3 mps 758 mmHg 70%
    05:00 +3°C° 0 mm 3 mps 758 mmHg 71%
    06:00 +3°C° 0 mm 3 mps 758 mmHg 72%
    07:00 +3°C° 0 mm 3 mps 759 mmHg 74%
    08:00 +5°C° 0 mm 3 mps 759 mmHg 72%
    09:00 +8°C° 0 mm 3 mps 759 mmHg 70%
    10:00 +9°C° 0 mm 3 mps 759 mmHg 68%
    11:00 +11°C° 0 mm 3 mps 759 mmHg 65%
    12:00 +12°C° 0 mm 3 mps 759 mmHg 62%
    13:00 +14°C° 0 mm 3 mps 759 mmHg 59%
    14:00 +14°C° 0 mm 3 mps 758 mmHg 59%
    15:00 +14°C° 0 mm 3 mps 758 mmHg 59%
    16:00 +14°C° 0 mm 3 mps 757 mmHg 59%
    17:00 +14°C° 0 mm 2 mps 757 mmHg 67%
    18:00 +12°C° 0 mm 1 mps 757 mmHg 74%
    19:00 +10°C° 0 mm 1 mps 757 mmHg 82%
    20:00 +10°C° 0 mm 1 mps 757 mmHg 84%
    21:00 +10°C° 0 mm 1 mps 757 mmHg 86%
    22:00 +9°C° 0 mm 1 mps 757 mmHg 88%
    23:00 +9°C° 0 mm 1 mps 757 mmHg 89%

    Day after tomorrow, 22 March, Friday

    Time Temperature Precipitation Wind Pressure Humidity
    00:00 +9°C° 0 mm 1 mps 758 mmHg 90%
    01:00 +7°C° 0 mm 2 mps 758 mmHg 90%
    02:00 +7°C° 0 mm 2 mps 757 mmHg 90%
    03:00 +7°C° 0 mm 2 mps 757 mmHg 90%
    04:00 +7°C° 0 mm 2 mps 757 mmHg 90%
    05:00 +7°C° 0 mm 2 mps 757 mmHg 89%
    06:00 +7°C° 0 mm 2 mps 757 mmHg 87%
    07:00 +7°C° 0 mm 2 mps 757 mmHg 86%
    08:00 +11°C° 0 mm 1 mps 757 mmHg 78%
    09:00 +13°C° 0 mm 1 mps 757 mmHg 69%
    10:00 +15°C° 0 mm 1 mps 758 mmHg 61%
    11:00 +16°C° 0 mm 1 mps 757 mmHg 57%
    12:00 +18°C° 0 mm 1 mps 757 mmHg 53%
    13:00 +20°C° 0 mm 1 mps 757 mmHg 49%
    14:00 +20°C° 0 mm 1 mps 756 mmHg 49%
    15:00 +20°C° 0 mm 1 mps 756 mmHg 48%
    16:00 +20°C° 0 mm 1 mps 755 mmHg 47%
    17:00 +18°C° 0 mm 1 mps 755 mmHg 53%
    18:00 +15°C° 0 mm 1 mps 755 mmHg 59%
    19:00 +14°C° 0 mm 1 mps 755 mmHg 65%
    20:00 +13°C° 0 mm 1 mps 755 mmHg 68%
    21:00 +12°C° 0 mm 2 mps 755 mmHg 70%
    22:00 +12°C° 0 mm 2 mps 755 mmHg 73%
    23:00 +10°C° 0 mm 2 mps 754 mmHg 73%

    23 March, Saturday

    Time Temperature Precipitation Wind Pressure Humidity
    00:00 +10°C° 0 mm 2 mps 754 mmHg 73%
    01:00 +10°C° 0 mm 2 mps 754 mmHg 73%
    02:00 +10°C° 0 mm 2 mps 754 mmHg 73%
    03:00 +9°C° 0 mm 3 mps 754 mmHg 74%
    04:00 +9°C° 0 mm 3 mps 753 mmHg 74%
    05:00 +9°C° 0 mm 3 mps 754 mmHg 73%
    06:00 +9°C° 0 mm 3 mps 754 mmHg 72%
    07:00 +9°C° 0 mm 3 mps 754 mmHg 71%
    08:00 +11°C° 0 mm 3 mps 754 mmHg 67%
    09:00 +13°C° 0 mm 3 mps 754 mmHg 62%
    10:00 +14°C° 0 mm 3 mps 754 mmHg 57%
    11:00 +16°C° 0 mm 3 mps 754 mmHg 55%
    12:00 +17°C° 0 mm 3 mps 754 mmHg 52%
    13:00 +18°C° 0 mm 3 mps 754 mmHg 50%
    14:00 +18°C° 0 mm 3 mps 754 mmHg 52%
    15:00 +17°C° 0 mm 3 mps 754 mmHg 53%
    16:00 +17°C° 0 mm 3 mps 754 mmHg 55%
    17:00 +16°C° 0 mm 3 mps 754 mmHg 63%
    18:00 +13°C° 0 mm 3 mps 754 mmHg 72%
    19:00 +11°C° 0 mm 3 mps 755 mmHg 80%
    20:00 +11°C° 0 mm 3 mps 755 mmHg 79%
    21:00 +10°C° 0 mm 3 mps 755 mmHg 78%
    22:00 +10°C° 0 mm 3 mps 756 mmHg 77%
    23:00 +9°C° 0 mm 3 mps 756 mmHg 71%

    24 March, Sunday

    Time Temperature Precipitation Wind Pressure Humidity
    00:00 +8°C° 0 mm 3 mps 756 mmHg 64%
    01:00 +7°C° 0 mm 3 mps 756 mmHg 57%
    02:00 +7°C° 0 mm 3 mps 755 mmHg 56%
    03:00 +5°C° 0 mm 3 mps 755 mmHg 55%
    04:00 +4°C° 0 mm 3 mps 755 mmHg 54%
    05:00 +4°C° 0 mm 3 mps 755 mmHg 56%
    06:00 +4°C° 0 mm 3 mps 755 mmHg 59%
    07:00 +3°C° 0 mm 3 mps 755 mmHg 61%
    08:00 +5°C° 0 mm 3 mps 755 mmHg 57%
    09:00 +7°C° 0 mm 3 mps 755 mmHg 52%
    10:00 +9°C° 0 mm 3 mps 755 mmHg 48%
    11:00 +10°C° 0 mm 2 mps 754 mmHg 46%
    12:00 +12°C° 0 mm 2 mps 753 mmHg 44%
    13:00 +13°C° 0 mm 2 mps 753 mmHg 42%
    14:00 +13°C° 0 mm 2 mps 752 mmHg 42%
    15:00 +13°C° 0 mm 2 mps 752 mmHg 42%
    16:00 +13°C° 0 mm 2 mps 751 mmHg 42%
    17:00 +12°C° 0 mm 1 mps 751 mmHg 47%
    18:00 +10°C° 0 mm 1 mps 751 mmHg 51%
    19:00 +8°C° 0 mm 0 mps 750 mmHg 56%
    20:00 +8°C° 0 mm 1 mps 750 mmHg 58%
    21:00 +8°C° 0 mm 1 mps 750 mmHg 59%
    22:00 +7°C° 0 mm 1 mps 750 mmHg 61%
    23:00 +7°C° 0 mm 1 mps 749 mmHg 61%

    25 March, Monday

    Time Temperature Precipitation Wind Pressure Humidity
    00:00 +5°C° 0 mm 2 mps 749 mmHg 61%
    01:00 +5°C° 0 mm 2 mps 748 mmHg 61%
    02:00 +4°C° 0 mm 3 mps 748 mmHg 64%
    03:00 +5°C° 0 mm 3 mps 748 mmHg 66%
    04:00 +6°C° 0 mm 4 mps 748 mmHg 68%
    05:00 +5°C° 0 mm 4 mps 748 mmHg 69%
    06:00 +3°C° 0 mm 5 mps 747 mmHg 69%
    07:00 +2°C° 0 mm 5 mps 747 mmHg 69%
    08:00 +3°C° 0 mm 6 mps 747 mmHg 66%
    09:00 +5°C° 0 mm 7 mps 747 mmHg 63%
    10:00 +6°C° 0 mm 7 mps 746 mmHg 60%
    11:00 +5°C° 0.1 mm 8 mps 746 mmHg 63%
    12:00 +5°C° 0.1 mm 8 mps 745 mmHg 66%
    13:00 +5°C° 0.1 mm 8 mps 745 mmHg 69%
    14:00 +5°C° 0.4 mm 8 mps 745 mmHg 66%
    15:00 +3°C° 0.4 mm 9 mps 745 mmHg 62%
    16:00 +3°C° 0.4 mm 9 mps 744 mmHg 59%
    17:00 +2°C° 0.1 mm 8 mps 744 mmHg 62%
    18:00 +2°C° 0.1 mm 7 mps 745 mmHg 64%
    19:00 +2°C° 0.1 mm 6 mps 745 mmHg 67%
    20:00 +1°C° 0 mm 6 mps 744 mmHg 68%
    21:00 0°C° 0 mm 7 mps 744 mmHg 69%
    22:00 -1°C° 0 mm 7 mps 744 mmHg 70%
    23:00 -1°C° 0.1 mm 7 mps 744 mmHg 70%
    Show more